This demonstration page uses our WeatherBlox Daily Observations layout. Learn more.

Left ArrowRight Arrow

Hourly Observations for February 4, 2020

Temp ( °F °C ) Dew Point ( °F °C ) Humidity (%) Winds ( mph kmh ) Pressure ( in mb ) Visibility ( mi km ) Precip ( " mm )
12:59 am 00:59 Mostly Cloudy 62 16.7 44 6.7 52 52 SW 10 17 29.92 1013 10 16 0.00 0.00
1:59 am 01:59 Mostly Cloudy 61 16.1 44 6.7 54 54 SW 8 13 29.92 1013 10 16 0.00 0.00
2:59 am 02:59 Mostly Cloudy 60 15.6 43 6.1 53 53 SSW 12 19 29.90 1013 10 16 0.00 0.00
3:59 am 03:59 Mostly Cloudy 60 15.6 43 6.1 53 53 SW 8 13 29.90 1013 10 16 0.00 0.00
4:59 am 04:59 Mostly Cloudy 60 15.6 42 5.6 52 52 SSW 9 15 29.89 1012 10 16 0.00 0.00
5:59 am 05:59 Cloudy 61 16.1 42 5.6 50 50 SW 10 17 29.89 1012 10 16 0.00 0.00
6:59 am 06:59 Mostly Cloudy 62 16.7 42 5.6 48 48 SW 13 20 29.92 1013 10 16 0.00 0.00
7:59 am 07:59 Cloudy 62 16.7 43 6.1 50 50 SW 9 15 29.93 1013 10 16 0.00 0.00
8:59 am 08:59 Cloudy 62 16.7 43 6.1 50 50 WSW 10 17 29.95 1014 10 16 0.00 0.00
9:59 am 09:59 Cloudy 65 18.3 45 7.2 49 49 WSW 6 9 29.94 1014 10 16 0.00 0.00
10:59 am 10:59 Cloudy 66 18.9 45 7.2 47 47 WSW 6 9 29.94 1014 10 16 0.00 0.00
11:59 am 11:59 Cloudy 66 18.9 45 7.2 47 47 WSW 8 13 29.93 1014 10 16 0.00 0.00
12:59 pm 12:59 Cloudy 67 19.4 46 7.8 47 47 SW 7 11 29.89 1012 10 16 0.00 0.00
1:59 pm 13:59 Cloudy 67 19.4 46 7.8 47 47 SW 7 11 29.87 1012 10 16 0.00 0.00
2:59 pm 14:59 Cloudy 68 20 46 7.8 45 45 SW 7 11 29.87 1012 10 16 0.00 0.00
3:59 pm 15:59 Cloudy 69 20.6 47 8.3 45 45 SSW 7 11 29.87 1012 10 16 0.00 0.00
4:59 pm 16:59 Mostly Cloudy 68 20 47 8.3 47 47 SSW 8 13 29.87 1011 10 16 0.00 0.00
5:59 pm 17:59 Cloudy 67 19.4 47 8.3 49 49 SSW 8 13 29.86 1011 10 16 0.00 0.00
6:59 pm 18:59 Cloudy 66 18.9 48 8.9 52 52 SW 9 15 29.91 1013 10 16 0.00 0.00
7:59 pm 19:59 Cloudy 64 17.8 47 8.3 54 54 SW 7 11 29.89 1012 10 16 0.00 0.00
8:59 pm 20:59 Cloudy 64 17.8 48 8.9 56 56 SSW 6 9 29.88 1012 10 16 0.00 0.00
9:59 pm 21:59 Cloudy 64 17.8 48 8.9 56 56 SSW 9 15 29.88 1012 10 16 0.00 0.00
10:59 pm 22:59 Cloudy 65 18.3 48 8.9 54 54 SW 13 20 29.88 1012 10 16 0.00 0.00
11:59 pm 23:59 Cloudy 65 18.3 47 8.3 52 52 SW 15 24 29.88 1012 10 16 0.00 0.00

Powered by AerisWeather